Weather History for KHNZ - May, 2014

Change the Weather History Date:

Wednesday, May 14, 2014

  Actual Average (KTDF) Record (KTDF)
Temperature  
Mean Temperature 76 °F -  
Max Temperature 86 °F 77 °F 92 °F (1982)
Min Temperature 66 °F 54 °F 33 °F (2013)
Cooling Degree Days 11    
Growing Degree Days 26 (Base 50)    
Moisture  
Dew Point 63 °F    
Average Humidity 65    
Maximum Humidity 92    
Minimum Humidity 43    
Precipitation  
Precipitation 0.00 in - - ()
Sea Level Pressure  
Sea Level Pressure 30.13 in    
Wind  
Wind Speed 6 mph (South)    
Max Wind Speed 16 mph    
Max Gust Speed 21 mph    
Visibility 10 miles    
Events      
Averages and records for this station are not official NWS values.
T = Trace of Precipitation, MM = Missing Value Source: NWS Daily Summary

Daily Weather History Graph

Daily Weather History Graph

Search for Another Location

Airport or City:

Trip Planner

Search our weather history database for the weather conditions in past years. The results will help you decide how hot, cold, wet, or windy it might be!

Date:

Astronomy

May. 14, 2014 Rise Set
Actual Time 6:08 AM EDT 8:13 PM EDT
Civil Twilight 5:39 AM EDT 8:41 PM EDT
Nautical Twilight 5:04 AM EDT 9:16 PM EDT
Astronomical Twilight 4:27 AM EDT 9:54 PM EDT
Moon 8:17 PM EDT (5/14) 6:04 AM EDT (5/14)
Length of Visible Light 15h 01m
Length of Day
14h 04m
Full, 100% of the Moon is Illuminated
May 14
Full
May 14
Full
May 21
Last Quarter
May 28
New
Jun 5
First Quarter

Hourly Weather History & Observations

Time (EDT) Temp. Heat Index Dew Point Humidity Pressure Visibility Wind Dir Wind Speed Gust Speed Precip Events Conditions
12:15 AM 72.5 °F - 62.1 °F 70% 30.15 in 10.0 mi South 4.6 mph - N/A   Clear
12:35 AM 72.1 °F - 62.6 °F 72% 30.15 in 10.0 mi South 5.8 mph - N/A   Clear
12:55 AM 71.4 °F - 62.8 °F 74% 30.14 in 10.0 mi South 5.8 mph - N/A   Clear
1:15 AM 72.0 °F - 63.7 °F 75% 30.14 in 10.0 mi SSW 6.9 mph - N/A   Clear
1:35 AM 71.6 °F - 64.0 °F 77% 30.13 in 10.0 mi SSW 5.8 mph - N/A   Clear
2:15 AM 70.7 °F - 64.2 °F 80% 30.13 in 10.0 mi SSW 4.6 mph - N/A   Clear
2:35 AM 69.8 °F - 64.0 °F 82% 30.13 in 10.0 mi South 3.5 mph - N/A   Clear
2:55 AM 68.7 °F - 64.8 °F 87% 30.13 in 10.0 mi SSW 3.5 mph - N/A   Clear
3:15 AM 68.5 °F - 65.1 °F 89% 30.13 in 10.0 mi South 4.6 mph - N/A   Clear
3:35 AM 68.2 °F - 64.8 °F 89% 30.12 in 10.0 mi South 4.6 mph - N/A   Scattered Clouds
3:55 AM 68.2 °F - 64.9 °F 89% 30.12 in 10.0 mi SSW 4.6 mph - N/A   Clear
4:15 AM 68.2 °F - 64.8 °F 89% 30.13 in 10.0 mi SSW 4.6 mph - N/A   Scattered Clouds
4:35 AM 68.2 °F - 64.8 °F 89% 30.13 in 10.0 mi South 4.6 mph - N/A   Scattered Clouds
4:55 AM 67.8 °F - 64.4 °F 89% 30.13 in 10.0 mi SSW 4.6 mph - N/A   Clear
5:15 AM 67.6 °F - 64.6 °F 90% 30.13 in 10.0 mi South 4.6 mph - N/A   Clear
5:35 AM 67.5 °F - 64.6 °F 90% 30.13 in 10.0 mi SSW 4.6 mph - N/A   Clear
5:55 AM 67.5 °F - 64.8 °F 91% 30.14 in 10.0 mi SSW 5.8 mph - N/A   Clear
6:15 AM 67.3 °F - 64.4 °F 90% 30.14 in 10.0 mi South 4.6 mph - N/A   Clear
6:35 AM 66.9 °F - 64.4 °F 92% 30.14 in 7.0 mi South 4.6 mph - N/A   Clear
6:55 AM 67.3 °F - 64.6 °F 91% 30.15 in 7.0 mi SSW 4.6 mph - N/A   Clear
7:15 AM 68.9 °F - 65.7 °F 89% 30.16 in 7.0 mi SSW 4.6 mph - N/A   Clear
7:35 AM 70.2 °F - 65.8 °F 86% 30.17 in 10.0 mi SSW 6.9 mph - N/A   Clear
7:55 AM 71.2 °F - 66.2 °F 84% 30.17 in 10.0 mi SSW 6.9 mph - N/A   Clear
8:15 AM 71.6 °F - 66.2 °F 83% 30.18 in 7.0 mi SSW 5.8 mph - N/A   Scattered Clouds
8:35 AM 73.6 °F - 65.5 °F 76% 30.18 in 10.0 mi SW 8.1 mph - N/A   Scattered Clouds
8:55 AM 75.0 °F - 65.8 °F 73% 30.18 in 10.0 mi WSW 6.9 mph - N/A   Clear
9:15 AM 76.1 °F - 65.7 °F 70% 30.18 in 7.0 mi SW 8.1 mph - N/A   Clear
9:35 AM 76.6 °F - 65.5 °F 68% 30.18 in 10.0 mi SW 5.8 mph - N/A   Clear
9:55 AM 77.9 °F - 65.3 °F 65% 30.18 in 10.0 mi SSW 3.5 mph - N/A   Clear
10:35 AM 79.5 °F - 65.1 °F 61% 30.17 in 10.0 mi Calm Calm - N/A   Clear
10:55 AM 81.0 °F 83.0 °F 66.0 °F 60% 30.17 in 10.0 mi SSE 5.8 mph - N/A   Clear
11:35 AM 82.4 °F 84.1 °F 64.9 °F 55% 30.16 in 10.0 mi Calm Calm - N/A   Clear
11:55 AM 83.1 °F 84.8 °F 64.9 °F 54% 30.16 in 10.0 mi Calm Calm - N/A   Scattered Clouds
12:15 PM 84.2 °F 85.6 °F 64.0 °F 51% 30.16 in 10.0 mi SSW 5.8 mph - N/A   Scattered Clouds
12:55 PM 84.6 °F 86.1 °F 64.8 °F 51% 30.16 in 10.0 mi South 5.8 mph 9.2 mph N/A   Scattered Clouds
1:15 PM 84.0 °F 85.2 °F 63.5 °F 50% 30.15 in 10.0 mi SSE 4.6 mph - N/A   Scattered Clouds
1:35 PM 83.7 °F 84.9 °F 64.0 °F 51% 30.14 in 10.0 mi South 8.1 mph - N/A   Mostly Cloudy
1:55 PM 83.3 °F 84.6 °F 63.9 °F 52% 30.14 in 10.0 mi SSE 5.8 mph - N/A   Mostly Cloudy
2:15 PM 86.2 °F 87.1 °F 63.0 °F 46% 30.13 in 10.0 mi South 11.5 mph - N/A   Scattered Clouds
2:35 PM 86.0 °F 86.6 °F 62.6 °F 45% 30.12 in 10.0 mi South 10.4 mph 16.1 mph N/A   Scattered Clouds
2:55 PM 84.2 °F 85.2 °F 63.0 °F 49% 30.12 in 10.0 mi SSE 6.9 mph 10.4 mph N/A   Scattered Clouds
3:15 PM 86.0 °F 86.8 °F 63.1 °F 46% 30.11 in 10.0 mi South 6.9 mph - N/A   Scattered Clouds
3:35 PM 85.5 °F 86.1 °F 62.6 °F 46% 30.10 in 10.0 mi SE 11.5 mph - N/A   Scattered Clouds
3:55 PM 86.5 °F 86.8 °F 61.9 °F 43% 30.09 in 10.0 mi South 16.1 mph 20.7 mph N/A   Clear
4:15 PM 86.5 °F 86.8 °F 61.7 °F 43% 30.09 in 10.0 mi SSE 6.9 mph - N/A   Scattered Clouds
4:35 PM 86.0 °F 86.1 °F 61.2 °F 43% 30.08 in 10.0 mi SE 8.1 mph 16.1 mph N/A   Scattered Clouds
4:55 PM 85.3 °F 85.7 °F 61.5 °F 45% 30.08 in 10.0 mi SSE 8.1 mph - N/A   Scattered Clouds
5:15 PM 86.0 °F 86.1 °F 61.2 °F 43% 30.08 in 10.0 mi SSE 9.2 mph - N/A   Scattered Clouds
5:35 PM 85.6 °F 85.7 °F 61.0 °F 43% 30.08 in 10.0 mi SSE 6.9 mph - N/A   Mostly Cloudy
5:55 PM 83.8 °F 84.0 °F 60.3 °F 45% 30.08 in 10.0 mi SSE 6.9 mph - N/A   Scattered Clouds
6:15 PM 84.6 °F 84.4 °F 59.5 °F 43% 30.08 in 10.0 mi SSE 6.9 mph - N/A   Clear
6:35 PM 83.8 °F 83.6 °F 58.8 °F 43% 30.08 in 10.0 mi SSE 8.1 mph - N/A   Clear
6:55 PM 83.3 °F 83.1 °F 58.8 °F 43% 30.07 in 10.0 mi SSE 6.9 mph - N/A   Clear
7:15 PM 82.2 °F 82.3 °F 58.6 °F 45% 30.07 in 10.0 mi SE 5.8 mph - N/A   Clear
7:35 PM 81.0 °F 81.3 °F 59.2 °F 47% 30.08 in 10.0 mi SSE 5.8 mph - N/A   Clear
7:55 PM 79.7 °F - 59.4 °F 50% 30.08 in 10.0 mi SSE 4.6 mph - N/A   Clear
8:15 PM 78.1 °F - 59.5 °F 53% 30.08 in 10.0 mi South 3.5 mph - N/A   Clear
8:35 PM 76.5 °F - 60.1 °F 57% 30.09 in 10.0 mi South 3.5 mph - N/A   Clear
8:55 PM 75.2 °F - 60.3 °F 60% 30.09 in 10.0 mi South 4.6 mph - N/A   Clear
9:15 PM 75.6 °F - 59.9 °F 58% 30.10 in 10.0 mi South 6.9 mph - N/A   Clear
9:35 PM 75.6 °F - 59.7 °F 58% 30.10 in 10.0 mi SSE 5.8 mph - N/A   Clear
9:55 PM 75.0 °F - 59.9 °F 59% 30.12 in 10.0 mi South 9.2 mph - N/A   Clear
10:15 PM 74.3 °F - 59.5 °F 60% 30.12 in 10.0 mi SSE 9.2 mph - N/A   Clear
10:35 PM 73.8 °F - 59.5 °F 61% 30.12 in 10.0 mi South 10.4 mph - N/A   Clear
10:55 PM 73.4 °F - 59.4 °F 61% 30.12 in 10.0 mi South 8.1 mph - N/A   Clear
11:15 PM 72.7 °F - 59.4 °F 63% 30.13 in 10.0 mi SSE 8.1 mph - N/A   Clear
11:35 PM 71.8 °F - 59.7 °F 66% 30.13 in 10.0 mi South 8.1 mph - N/A   Clear
11:55 PM 71.1 °F - 59.9 °F 68% 30.13 in 10.0 mi South 8.1 mph - N/A   Clear